THORAD AGENA D DEB, 4677

Orbit data source: Space-Track

THORAD AGENA D DEB, 4677 is space debris in SSO originally from a launch on Wed, 08 Apr 1970 UTC launched from the Air Force Western Test Range (AFWTR). Debris objects in space refer to the collection of defunct objects orbiting the Earth. Examples of debris include non-operational satellites, rocket bodies, and fragments generated from explosions, collisions, or faulty payload assembly.

Loading next visibility...
Identifier
4677, 1970-025BA
Orbit
SSO
Country
Flag of USUS
Related business
Manufacturer
Unknown
Mission
Spacecraft
Bus & Motor
Unknown
Mass
Unknown
Launch date (UTC)
1970-04-08 (56 years ago)
Launch vehicle
Unknown
Launch site
Air Force Western Test Range (AFWTR)
Object type
Payload
Rocket body
Debris
Shape & HBR
Unknown shape, 0.1 m
Radar Cross Section
Small (<0.1 m²)

Expand to show TLE details & history
Last TLE update: 12 hours ago

TLE from 12 hours ago
0 THORAD AGENA D DEB
1  4677U 70025BA  26035.28822270  .00000215  00000-0  35870-3 0  9999
2  4677  99.9716 153.5018 0010092 125.2361 263.8177 13.58432622760511
Epoch: 2026-02-04T06:55Z
TLE epoch observation values (Epoch: 2026-02-04T06:55:02.441Z)
Latitude
28.50612°
Longitude
-90.16621°
Altitude
1,045.615 km
Speed
7.331 km/s
True Right ascension
09h 52m 12s
True Declination
28° 22' 04"
Sunlit
Object was in full shadow at epoch
Visualization orbit readout
Latitude
Unknown
Longitude
Unknown
Altitude
Unknown
Speed
Unknown
Apparent Right ascension
Unknown
Apparent Declination
Unknown
Sunlit
N/A
Visualization observer readout
Local Sidereal Time
21:23:56
Azimuth
Unknown
Elevation
Unknown
Doppler factor
Unknown
Orbital elements
Apogee altitude
1,046.183 km
Perigee altitude
1,031.213 km
Semi-major axis
7,416.835 km
Eccentricity
0.00101
Inclination
99.9716°
RAAN
153.5018°
Arg. of periapsis
125.2361°
True anomaly
263.70274°
Mean anomaly
263.8177°
Eccentric anomaly
263.76022°
Mean motion
3.39794 °/min
Orbital period
105.95 mins
BSTAR
0.0003587
Loading maneuver chart data...
Computing Atmospheric mass density...

Documentation

Showing up to 5 results
|